Weather History for KVBT - February, 2013

Change the Weather History Date:

Sunday, February 24, 2013

  Actual Average (KFYV) Record (KFYV)
Temperature  
Mean Temperature 42 °F 42 °F  
Max Temperature 59 °F 54 °F 80 °F (1956)
Min Temperature 26 °F 31 °F 8 °F (1967)
Degree Days  
Heating Degree Days 22 23  
Month to date heating degree days 620  
Since 1 July heating degree days 3214  
Moisture  
Dew Point 27 °F    
Average Humidity 55    
Maximum Humidity 80    
Minimum Humidity 33    
Precipitation  
Precipitation 0.00 in 0.11 in 1.42 in (2001)
Month to date precipitation 2.37  
Year to date precipitation 5.21  
Sea Level Pressure  
Sea Level Pressure 29.90 in    
Wind  
Wind Speed 7 mph (SE)    
Max Wind Speed 16 mph    
Max Gust Speed 20 mph    
Visibility 10 miles    
Events      
T = Trace of Precipitation, MM = Missing Value Source: NWS Daily Summary

Daily Weather History Graph

Daily Weather History Graph

Search for Another Location

Airport or City:

Trip Planner

Search our weather history database for the weather conditions in past years. The results will help you decide how hot, cold, wet, or windy it might be!

Date:

Astronomy

Feb. 24, 2013 Rise Set
Actual Time 6:53 AM CST 6:07 PM CST
Civil Twilight 6:27 AM CST 6:33 PM CST
Nautical Twilight 5:57 AM CST 7:03 PM CST
Astronomical Twilight 5:27 AM CST 7:32 PM CST
Moon 5:18 PM CST (2/24) 5:50 AM CST (2/24)
Length of Visible Light 12h 05m
Length of Day
11h 13m
Waxing Gibbous, 99% of the Moon is Illuminated
Feb 24
Waxing Gibbous
Feb 25
Full
Mar 4
Last Quarter
Mar 11
New
Mar 19
First Quarter

Hourly Weather History & Observations

Time (CST) Temp. Windchill Dew Point Humidity Pressure Visibility Wind Dir Wind Speed Gust Speed Precip Events Conditions
12:15 AM 32.0 °F 28.7 °F 21.2 °F 64% 29.96 in 10.0 mi ESE 3.5 mph - N/A   Clear
12:35 AM 30.2 °F 25.4 °F 21.2 °F 69% 29.95 in 10.0 mi East 4.6 mph - N/A   Clear
12:55 AM 32.0 °F 28.7 °F 23.0 °F 69% 29.96 in 10.0 mi East 3.5 mph - N/A   Clear
1:15 AM 30.2 °F 26.7 °F 21.2 °F 69% 29.96 in 10.0 mi East 3.5 mph - N/A   Clear
1:35 AM 30.2 °F 26.7 °F 21.2 °F 69% 29.96 in 10.0 mi ESE 3.5 mph - N/A   Clear
1:55 AM 30.2 °F 25.4 °F 21.2 °F 69% 29.96 in 10.0 mi ESE 4.6 mph - N/A   Clear
2:15 AM 30.2 °F 26.7 °F 21.2 °F 69% 29.96 in 10.0 mi ESE 3.5 mph - N/A   Clear
2:35 AM 30.2 °F - 21.2 °F 69% 29.95 in 10.0 mi Calm Calm - N/A   Clear
2:55 AM 28.4 °F 24.6 °F 21.2 °F 74% 29.94 in 10.0 mi ESE 3.5 mph - N/A   Clear
3:15 AM 30.2 °F 24.3 °F 21.2 °F 69% 29.93 in 10.0 mi ESE 5.8 mph - N/A   Clear
3:35 AM 30.2 °F 23.4 °F 23.0 °F 75% 29.93 in 10.0 mi ESE 6.9 mph - N/A   Clear
3:55 AM 30.2 °F 23.4 °F 23.0 °F 75% 29.93 in 10.0 mi ESE 6.9 mph - N/A   Clear
4:15 AM 30.2 °F 23.4 °F 23.0 °F 75% 29.93 in 10.0 mi ESE 6.9 mph - N/A   Clear
4:35 AM 30.2 °F 23.4 °F 23.0 °F 75% 29.92 in 10.0 mi ESE 6.9 mph - N/A   Clear
4:55 AM 30.2 °F 25.4 °F 23.0 °F 75% 29.92 in 10.0 mi East 4.6 mph - N/A   Clear
5:15 AM 30.2 °F - 24.8 °F 80% 29.94 in 10.0 mi Calm Calm - N/A   Clear
5:35 AM 26.6 °F - 21.2 °F 80% 29.94 in 10.0 mi Calm Calm - N/A   Clear
5:55 AM 26.6 °F - 21.2 °F 80% 29.94 in 10.0 mi Calm Calm - N/A   Clear
6:15 AM 28.4 °F 23.3 °F 23.0 °F 80% 29.94 in 10.0 mi ENE 4.6 mph - N/A   Clear
6:35 AM 28.4 °F 22.2 °F 23.0 °F 80% 29.93 in 10.0 mi East 5.8 mph - N/A   Clear
7:15 AM 30.2 °F 21.9 °F 24.8 °F 80% 29.92 in 10.0 mi ESE 9.2 mph - N/A   Clear
7:35 AM 33.8 °F 26.4 °F 26.6 °F 75% 29.92 in 10.0 mi ESE 9.2 mph - N/A   Clear
7:55 AM 35.6 °F 28.0 °F 26.6 °F 70% 29.94 in 10.0 mi ESE 10.4 mph - N/A   Clear
8:15 AM 37.4 °F 30.3 °F 28.4 °F 70% 29.95 in 10.0 mi SE 10.4 mph - N/A   Clear
8:35 AM 37.4 °F 30.8 °F 28.4 °F 70% 29.96 in 10.0 mi SE 9.2 mph - N/A   Clear
8:55 AM 39.2 °F 32.5 °F 28.4 °F 65% 29.96 in 10.0 mi SE 10.4 mph - N/A   Clear
9:15 AM 41.0 °F 35.2 °F 28.4 °F 61% 29.97 in 10.0 mi SE 9.2 mph - N/A   Clear
9:35 AM 42.8 °F 37.0 °F 30.2 °F 61% 29.97 in 10.0 mi SE 10.4 mph - N/A   Clear
9:55 AM 44.6 °F 38.4 °F 30.2 °F 57% 29.98 in 10.0 mi SE 12.7 mph - N/A   Clear
10:15 AM 46.4 °F 41.9 °F 30.2 °F 53% 29.98 in 10.0 mi South 9.2 mph - N/A   Clear
10:35 AM 48.2 °F - 30.2 °F 50% 29.98 in 10.0 mi South 9.2 mph - N/A   Clear
10:55 AM 50.0 °F - 32.0 °F 50% 29.97 in 10.0 mi SSE 13.8 mph - N/A   Clear
11:15 AM 51.8 °F - 32.0 °F 47% 29.96 in 10.0 mi SSE 6.9 mph - N/A   Clear
11:35 AM 53.6 °F - 32.0 °F 44% 29.96 in 10.0 mi SSE 11.5 mph - N/A   Clear
11:55 AM 53.6 °F - 33.8 °F 47% 29.96 in 10.0 mi SE 11.5 mph - N/A   Clear
12:15 PM 55.4 °F - 33.8 °F 44% 29.94 in 10.0 mi ESE 12.7 mph 17.3 mph N/A   Clear
12:35 PM 55.4 °F - 32.0 °F 41% 29.93 in 10.0 mi ESE 12.7 mph - N/A   Clear
12:55 PM 57.2 °F - 32.0 °F 38% 29.92 in 10.0 mi SE 11.5 mph 19.6 mph N/A   Clear
1:15 PM 57.2 °F - 32.0 °F 38% 29.90 in 10.0 mi SE 11.5 mph 19.6 mph N/A   Clear
1:35 PM 57.2 °F - 32.0 °F 38% 29.90 in 10.0 mi SE 9.2 mph - N/A   Clear
1:55 PM 57.2 °F - 30.2 °F 36% 29.89 in 10.0 mi SSE 12.7 mph - N/A   Clear
2:15 PM 57.2 °F - 30.2 °F 36% 29.89 in 10.0 mi South 9.2 mph 19.6 mph N/A   Clear
2:35 PM 57.2 °F - 30.2 °F 36% 29.88 in 10.0 mi SE 10.4 mph - N/A   Clear
2:55 PM 59.0 °F - 30.2 °F 34% 29.87 in 10.0 mi SSE 16.1 mph 19.6 mph N/A   Clear
3:15 PM 59.0 °F - 30.2 °F 34% 29.86 in 10.0 mi ESE 11.5 mph 18.4 mph N/A   Clear
3:35 PM 59.0 °F - 30.2 °F 34% 29.85 in 10.0 mi SSE 12.7 mph 17.3 mph N/A   Clear
3:55 PM 59.0 °F - 30.2 °F 34% 29.84 in 10.0 mi SE 10.4 mph - N/A   Clear
4:15 PM 59.0 °F - 30.2 °F 34% 29.83 in 10.0 mi SE 12.7 mph - N/A   Clear
4:35 PM 59.0 °F - 30.2 °F 34% 29.83 in 10.0 mi SSE 12.7 mph 18.4 mph N/A   Clear
4:55 PM 57.2 °F - 28.4 °F 33% 29.83 in 10.0 mi SE 11.5 mph - N/A   Clear
5:15 PM 57.2 °F - 28.4 °F 33% 29.83 in 10.0 mi SSE 12.7 mph - N/A   Clear
5:35 PM 55.4 °F - 28.4 °F 36% 29.83 in 10.0 mi SSE 9.2 mph - N/A   Clear
5:55 PM 53.6 °F - 28.4 °F 38% 29.82 in 10.0 mi SE 8.1 mph - N/A   Clear
6:15 PM 51.8 °F - 28.4 °F 41% 29.82 in 10.0 mi ESE 10.4 mph - N/A   Clear
6:35 PM 51.8 °F - 28.4 °F 41% 29.83 in 10.0 mi SE 9.2 mph - N/A   Clear
6:55 PM 50.0 °F - 28.4 °F 43% 29.82 in 10.0 mi ESE 10.4 mph - N/A   Clear
7:15 PM 50.0 °F - 28.4 °F 43% 29.82 in 10.0 mi ESE 12.7 mph - N/A   Clear
7:35 PM 50.0 °F - 28.4 °F 43% 29.82 in 10.0 mi ESE 12.7 mph - N/A   Clear
8:15 PM 48.2 °F - 28.4 °F 46% 29.83 in 10.0 mi SSE 10.4 mph 17.3 mph N/A   Clear
8:35 PM 46.4 °F 41.1 °F 28.4 °F 50% 29.83 in 10.0 mi SE 11.5 mph - N/A   Clear
8:55 PM 46.4 °F 41.5 °F 28.4 °F 50% 29.84 in 10.0 mi SE 10.4 mph - N/A   Clear
9:15 PM 46.4 °F 41.5 °F 30.2 °F 53% 29.85 in 10.0 mi SE 10.4 mph - N/A   Clear
9:35 PM 44.6 °F 39.7 °F 30.2 °F 57% 29.85 in 10.0 mi ESE 9.2 mph - N/A   Clear
9:55 PM 44.6 °F 40.7 °F 28.4 °F 53% 29.85 in 10.0 mi ESE 6.9 mph - N/A   Clear
10:15 PM 44.6 °F 39.7 °F 30.2 °F 57% 29.85 in 10.0 mi East 9.2 mph - N/A   Clear
10:35 PM 44.6 °F 40.7 °F 28.4 °F 53% 29.84 in 10.0 mi East 6.9 mph - N/A   Clear
10:55 PM 42.8 °F 38.6 °F 28.4 °F 57% 29.84 in 10.0 mi East 6.9 mph - N/A   Clear
11:15 PM 42.8 °F 38.6 °F 28.4 °F 57% 29.83 in 10.0 mi East 6.9 mph - N/A   Clear
11:35 PM 42.8 °F 37.5 °F 28.4 °F 57% 29.84 in 10.0 mi East 9.2 mph - N/A   Clear